Weather History for Ames, IA

Change the Weather History Date:

Wednesday, March 26, 2014

  Actual Average Record
Temperature  
Mean Temperature 37 °F 42 °F  
Max Temperature 54 °F 53 °F 78 °F (2007)
Min Temperature 19 °F 31 °F 14 °F (2001)
Degree Days  
Heating Degree Days 28 23  
Month to date heating degree days 943 760  
Since 1 July heating degree days 6809 6045  
Cooling Degree Days 0 0  
Month to date cooling degree days 0 0  
Year to date cooling degree days 0 0  
Moisture  
Dew Point 20 °F    
Average Humidity 51    
Maximum Humidity 73    
Minimum Humidity 28    
Precipitation  
Precipitation 0.00 in 0.07 in 0.16 in (1983)
Month to date precipitation 0.08 1.66  
Sea Level Pressure  
Sea Level Pressure 29.95 in    
Wind  
Wind Speed 18 mph (SSE)    
Max Wind Speed 32 mph    
Max Gust Speed 43 mph    
Visibility 10 miles    
Events      
T = Trace of Precipitation, MM = Missing Value Source: NWS Daily Summary

Daily Weather History Graph

Daily Weather History Graph

Search for Another Location

Airport:

Trip Planner

Search our weather history database for the weather conditions in past years. The results will help you decide how hot, cold, wet, or windy it might be!

Date:

Astronomy

Mar. 26, 2014 Rise Set
Actual Time 7:07 AM CDT 7:33 PM CDT
Civil Twilight 6:39 AM CDT 8:01 PM CDT
Nautical Twilight 6:06 AM CDT 8:34 PM CDT
Astronomical Twilight 5:32 AM CDT 9:08 PM CDT
Moon 4:20 AM CDT (3/26) 3:08 PM CDT (3/26)
Length of Visible Light 13h 22m
Length of Day
12h 26m
Waning Crescent, 21% of the Moon is Illuminated
Mar 26
Waning Crescent
Mar 30
New
Apr 7
First Quarter
Apr 15
Full
Apr 22
Last Quarter

Hourly Weather History & Observations

Time (CDT) Temp. Windchill Dew Point Humidity Pressure Visibility Wind Dir Wind Speed Gust Speed Precip Events Conditions
12:53 AM 19.9 °F 11.1 °F 12.0 °F 71% 30.23 in 10.0 mi SE 6.9 mph - N/A   Clear
1:53 AM 19.9 °F 8.6 °F 12.0 °F 71% 30.22 in 10.0 mi SSE 10.4 mph - N/A   Clear
2:53 AM 19.0 °F 7.5 °F 12.0 °F 74% 30.21 in 10.0 mi SE 10.4 mph - N/A   Clear
3:53 AM 19.0 °F 7.5 °F 12.0 °F 74% 30.19 in 10.0 mi SE 10.4 mph - N/A   Clear
4:53 AM 19.9 °F 9.3 °F 12.9 °F 74% 30.19 in 10.0 mi SSE 9.2 mph - N/A   Overcast
5:53 AM 19.0 °F 9.0 °F 12.0 °F 74% 30.18 in 10.0 mi SSE 8.1 mph - N/A   Clear
6:53 AM 19.0 °F 6.8 °F 12.0 °F 74% 30.16 in 10.0 mi SE 11.5 mph - N/A   Clear
7:53 AM 21.0 °F 9.3 °F 12.9 °F 71% 30.15 in 10.0 mi SSE 11.5 mph - N/A   Clear
8:53 AM 25.0 °F 13.1 °F 14.0 °F 63% 30.12 in 10.0 mi SSE 13.8 mph - N/A   Mostly Cloudy
9:53 AM 30.9 °F 20.7 °F 14.0 °F 50% 30.10 in 10.0 mi SSE 13.8 mph 24.2 mph N/A   Clear
10:53 AM 36.0 °F 25.0 °F 14.0 °F 41% 30.07 in 10.0 mi South 20.7 mph 26.5 mph N/A   Overcast
11:53 AM 42.1 °F 33.3 °F 16.0 °F 35% 30.01 in 10.0 mi SSE 19.6 mph 27.6 mph N/A   Clear
12:53 PM 46.0 °F 37.8 °F 17.1 °F 31% 29.95 in 10.0 mi SSE 23.0 mph 33.4 mph N/A   Partly Cloudy
1:53 PM 48.0 °F - 17.1 °F 29% 29.88 in 10.0 mi SSE 29.9 mph 36.8 mph N/A   Scattered Clouds
2:53 PM 51.1 °F - 19.0 °F 28% 29.83 in 10.0 mi SSE 24.2 mph 33.4 mph N/A   Mostly Cloudy
3:53 PM 50.0 °F - 19.0 °F 29% 29.81 in 10.0 mi South 25.3 mph 40.3 mph N/A   Overcast
4:53 PM 53.1 °F - 21.0 °F 29% 29.77 in 10.0 mi South 27.6 mph 36.8 mph N/A   Scattered Clouds
5:53 PM 51.1 °F - 23.0 °F 33% 29.75 in 10.0 mi South 17.3 mph 26.5 mph N/A   Overcast
6:53 PM 50.0 °F - 24.1 °F 36% 29.73 in 10.0 mi SSE 17.3 mph - N/A   Overcast
7:53 PM 50.0 °F - 26.1 °F 39% 29.72 in 10.0 mi South 17.3 mph 25.3 mph N/A   Overcast
8:53 PM 48.0 °F - 24.1 °F 39% 29.71 in 10.0 mi South 13.8 mph - N/A   Overcast
9:53 PM 48.0 °F - 35.1 °F 61% 29.70 in 10.0 mi SSW 29.9 mph 38.0 mph N/A   Overcast
10:46 PM 46.0 °F 37.2 °F 37.0 °F 71% 29.70 in 10.0 mi SSW 26.5 mph 41.4 mph N/A   Overcast
10:53 PM 46.0 °F 37.6 °F 37.0 °F 71% 29.71 in 10.0 mi SSW 24.2 mph 38.0 mph N/A   Overcast
11:53 PM 45.0 °F 35.8 °F 36.0 °F 71% 29.70 in 10.0 mi South 26.5 mph 35.7 mph N/A   Overcast